Jewel Of The Seas — C6FW9 — position and weather

sailwx.info

Track history (hours):
 
Tides and Currents Weather Stations Pressure Air Temp Water Temp Dewpoint Dewpoint Depression Visibility Wind Speed Wind Dir Waves Ship Positions

Jewel Of The Seas

Operator: Royal Caribbean Cruises Ltd

Last reported at 2018-May-23 17:55 UTC. Time now 2018-May-24 02:33 UTC.
Position N 37°14' E 025°51'.

Length 290 m; draft 8.6 m.

Type: Passenger vessel. MMSI: 311583000.

Date/timePositionNaut miles runAvg speedWind from/ knotsBaromVisibWave heightAir tempDewpointWater temp
2018-May-23 17:55N 37°14' E 025°51'513.3
2018-May-23 17:30N 37°18' E 025°47'1213.5
2018-May-23 16:36N 37°27' E 025°36'113.8
2018-May-23 16:30N 37°28' E 025°35'714.0
2018-May-23 16:00N 37°31' E 025°27'713.8
2018-May-23 15:30N 37°31' E 025°19'3 6.1
2018-May-23 15:00N 37°28' E 025°19'0 0.0
2018-May-23 14:25N 37°28' E 025°19'0 0.0
2018-May-23 13:55N 37°28' E 025°19'0 0.0
2018-May-23 13:28N 37°28' E 025°19'0 0.0
2018-May-23 12:58N 37°28' E 025°19'0 0.0
2018-May-23 12:28N 37°28' E 025°19'0 0.0
2018-May-23 11:49N 37°28' E 025°19'0 0.0
2018-May-23 11:28N 37°28' E 025°19'0 0.0
2018-May-23 10:58N 37°28' E 025°19'0 0.0
2018-May-23 10:28N 37°28' E 025°19'0 0.0
2018-May-23 09:58N 37°28' E 025°19'0 0.0
2018-May-23 09:28N 37°28' E 025°19'0 0.0
2018-May-23 08:58N 37°28' E 025°19'0 0.0
2018-May-23 08:28N 37°28' E 025°19'0 0.0
2018-May-23 07:55N 37°28' E 025°19'0 0.0
2018-May-23 07:28N 37°28' E 025°19'0 0.0
2018-May-23 06:58N 37°28' E 025°19'0 0.0
2018-May-23 06:28N 37°28' E 025°19'0 0.0
2018-May-23 05:58N 37°28' E 025°19'0 0.0
2018-May-23 05:25N 37°28' E 025°19'0 0.0
2018-May-23 04:58N 37°28' E 025°19'0 0.0
2018-May-23 04:28N 37°28' E 025°19'0 0.0
2018-May-23 03:58N 37°28' E 025°19'1 1.8
2018-May-23 03:30N 37°28' E 025°18'714.8
2018-May-23 03:00N 37°26' E 025°09'815.5
2018-May-23 02:29N 37°20' E 025°03'715.6
2018-May-23 02:00N 37°15' E 024°56'43214.5
2018-May-21 20:15N 37°47' E 015°53'415.6
2018-May-21 19:58N 37°49' E 015°47'1215.0
2018-May-21 19:10N 37°56' E 015°36'516.0
2018-May-21 18:52N 38°01' E 015°34'616.0
2018-May-21 18:29N 38°07' E 015°34'510.2
2018-May-21 18:00N 38°12' E 015°34'0 0.0
2018-May-21 08:39N 38°12' E 015°33'0 0.8
2018-May-21 08:29N 38°12' E 015°34'5 9.9
2018-May-21 07:58N 38°15' E 015°38'613.6
2018-May-21 07:30N 38°21' E 015°38'918.1
2018-May-21 06:59N 38°29' E 015°30'918.2
2018-May-21 06:30N 38°35' E 015°22'918.5
2018-May-21 06:00N 38°41' E 015°14'918.2
2018-May-21 05:30N 38°48' E 015°05'6518.6
2018-May-21 02:01N 39°33' E 014°06'018.7
2018-May-21 02:00N 39°34' E 014°06'1018.3
2018-May-21 01:27N 39°41' E 013°56'1218.4
2018-May-21 00:49N 39°49' E 013°46'618.8
2018-May-21 00:30N 39°53' E 013°40'918.7
2018-May-21 00:00N 39°60' E 013°32'1518.4
2018-May-20 23:11N 40°10' E 013°18'318.4
2018-May-20 23:01N 40°13' E 013°15'918.6
2018-May-20 22:30N 40°19' E 013°06'919.0
2018-May-20 22:00N 40°26' E 012°57'1019.1
2018-May-20 21:30N 40°33' E 012°48'1118.9
2018-May-20 20:55N 40°41' E 012°38'819.0
2018-May-20 20:28N 40°47' E 012°31'2019.2
2018-May-20 19:26N 41°04' E 012°17'819.1
2018-May-20 19:00N 41°11' E 012°11'1019.2
2018-May-20 18:31N 41°19' E 012°05'41810.4
2018-May-19 02:15N 40°14' E 002°60'518.5
2018-May-19 02:00N 40°13' E 002°54'918.3
2018-May-19 01:30N 40°11' E 002°43'5220.6
2018-May-18 23:00N 39°48' E 001°42'3411.5 040 / 91013.027.0 17.0 -18.0
2018-May-18 20:00N 39°36' E 001°00'5825.0 050 / 131008.027.0 -18.0
2018-May-18 17:42N 39°25' W 000°13'413.0
2018-May-18 17:21N 39°26' W 000°19'1 0.1
2018-May-18 04:44N 39°27' W 000°19'1 2.3
2018-May-18 04:30N 39°27' W 000°19'4 8.7
2018-May-18 04:00N 39°25' W 000°14'47 9.4
2018-May-17 23:00N 38°48' E 000°24'23 7.6 1014.027.0 18.0 -18.0
2018-May-17 20:00N 38°30' E 000°06'33 2.6 120 / 21008.027.0 -19.0
2018-May-17 07:24N 38°06' W 000°22'717.0
2018-May-17 06:59N 37°59' W 000°24'917.6
2018-May-17 06:30N 37°50' W 000°26'917.6
2018-May-17 06:00N 37°42' W 000°28'918.3
2018-May-17 05:30N 37°33' W 000°31'918.2
2018-May-17 05:00N 37°26' W 000°39'917.7
2018-May-17 04:30N 37°20' W 000°47'917.7
2018-May-17 04:00N 37°14' W 000°56'13016.2
2018-May-16 20:00N 36°12' W 003°18'8920.7 110 / 331008.027.0 -18.0
2018-May-16 15:42N 36°06' W 005°07'420.8
2018-May-16 15:31N 36°05' W 005°12'917.4
2018-May-16 15:00N 36°07' W 005°23'5 0.5
2018-May-16 05:44N 36°02' W 005°22'312.0
2018-May-16 05:30N 35°60' W 005°23'612.9
2018-May-16 05:00N 35°57' W 005°30'9716.1
2018-May-15 23:00N 34°54' W 007°00'4615.3 040 / 271006.027.0 19.0 -20.0
2018-May-15 20:00N 34°24' W 007°42'38118.1 360 / 281006.027.0 -18.0
2018-May-14 23:00N 30°00' W 013°06'2019.7 010 / 341010.027.0 17.0 -20.0
2018-May-14 22:00N 29°48' W 013°24'10919.9 360 / 301019.027.0 -19.0
2018-May-14 16:30N 28°33' W 014°55'917.7
2018-May-14 16:00N 28°26' W 015°02'917.9
2018-May-14 15:30N 28°20' W 015°08'918.1
2018-May-14 15:00N 28°13' W 015°15'917.4
2018-May-14 14:30N 28°07' W 015°23'3 5.4
2018-May-14 14:00N 28°08' W 015°25'0 0.2
2018-May-14 13:30N 28°08' W 015°25'0 0.0
2018-May-14 13:00N 28°08' W 015°25'0 0.0
2018-May-14 12:30N 28°08' W 015°25'0 0.0
2018-May-14 12:00N 28°08' W 015°25'0 0.0
2018-May-14 11:30N 28°08' W 015°25'0 0.0
2018-May-14 11:00N 28°08' W 015°25'0 0.0
2018-May-14 10:30N 28°08' W 015°25'0 0.0
2018-May-14 10:00N 28°08' W 015°25'0 0.0
2018-May-14 09:30N 28°08' W 015°25'0 0.0
2018-May-14 09:00N 28°08' W 015°25'0 0.0
2018-May-14 08:27N 28°08' W 015°25'0 0.0
2018-May-14 08:00N 28°08' W 015°25'0 0.0
2018-May-14 07:30N 28°08' W 015°25'0 0.0
2018-May-14 07:00N 28°08' W 015°25'0 0.0
2018-May-14 06:30N 28°08' W 015°25'0 0.0
2018-May-14 06:00N 28°08' W 015°25'0 0.1
2018-May-14 05:30N 28°08' W 015°25'2 4.7
2018-May-14 05:00N 28°07' W 015°23'3 6.6
2018-May-14 04:30N 28°09' W 015°21'3 6.6
2018-May-14 04:00N 28°13' W 015°21'4 7.0
2018-May-14 03:30N 28°16' W 015°22'4 7.0
2018-May-14 03:00N 28°19' W 015°23'4 7.2
2018-May-14 02:30N 28°23' W 015°24'4 7.3
2018-May-14 02:00N 28°27' W 015°25'4 7.7
2018-May-14 01:30N 28°29' W 015°28'4 7.6
2018-May-14 01:00N 28°31' W 015°31'4 7.9
2018-May-14 00:30N 28°34' W 015°35'4 7.9
2018-May-14 00:00N 28°36' W 015°39'10913.1
2018-May-14 00:00N 28°30' W 015°30'1327.6 040 / 261017.027.0 18.0 -20.0
2018-May-13 23:30N 28°38' W 015°43'4 7.8
2018-May-13 23:00N 28°40' W 015°46'4 6.6
2018-May-13 22:22N 28°39' W 015°51'3 7.1
2018-May-13 22:00N 28°37' W 015°53'10744.5
2018-May-13 22:00N 28°36' W 015°42'1327.0 030 / 211019.027.0 -18.0
2018-May-13 21:30N 28°35' W 015°57'4 7.1
2018-May-13 21:00N 28°33' W 016°00'4 7.3
2018-May-13 20:30N 28°31' W 016°04'3 6.9
2018-May-13 20:00N 28°30' W 016°07'3 6.2
2018-May-13 19:30N 28°29' W 016°10'3 6.3
2018-May-13 19:00N 28°29' W 016°14'1 1.2
2018-May-13 18:30N 28°28' W 016°14'0 0.0
2018-May-13 18:00N 28°28' W 016°14'  
Track history (hours):
 
Tides and Currents Weather Stations Pressure Air Temp Water Temp Dewpoint Dewpoint Depression Visibility Wind Speed Wind Dir Waves Ship Positions

Jewel Of The Seas

Operator: Royal Caribbean Cruises Ltd

Last reported at 2018-May-23 17:55 UTC. Time now 2018-May-24 02:33 UTC.
Position N 37°14' E 025°51'.

Length 290 m; draft 8.6 m.

Type: Passenger vessel. MMSI: 311583000.

Date/timePositionNaut miles runAvg speedWind from/ knotsBaromVisibWave heightAir tempDewpointWater temp
2018-May-23 17:55N 37°14' E 025°51'513.3
2018-May-23 17:30N 37°18' E 025°47'1213.5
2018-May-23 16:36N 37°27' E 025°36'113.8
2018-May-23 16:30N 37°28' E 025°35'714.0
2018-May-23 16:00N 37°31' E 025°27'713.8
2018-May-23 15:30N 37°31' E 025°19'3 6.1
2018-May-23 15:00N 37°28' E 025°19'0 0.0
2018-May-23 14:25N 37°28' E 025°19'0 0.0
2018-May-23 13:55N 37°28' E 025°19'0 0.0
2018-May-23 13:28N 37°28' E 025°19'0 0.0
2018-May-23 12:58N 37°28' E 025°19'0 0.0
2018-May-23 12:28N 37°28' E 025°19'0 0.0
2018-May-23 11:49N 37°28' E 025°19'0 0.0
2018-May-23 11:28N 37°28' E 025°19'0 0.0
2018-May-23 10:58N 37°28' E 025°19'0 0.0
2018-May-23 10:28N 37°28' E 025°19'0 0.0
2018-May-23 09:58N 37°28' E 025°19'0 0.0
2018-May-23 09:28N 37°28' E 025°19'0 0.0
2018-May-23 08:58N 37°28' E 025°19'0 0.0
2018-May-23 08:28N 37°28' E 025°19'0 0.0
2018-May-23 07:55N 37°28' E 025°19'0 0.0
2018-May-23 07:28N 37°28' E 025°19'0 0.0
2018-May-23 06:58N 37°28' E 025°19'0 0.0
2018-May-23 06:28N 37°28' E 025°19'0 0.0
2018-May-23 05:58N 37°28' E 025°19'0 0.0
2018-May-23 05:25N 37°28' E 025°19'0 0.0
2018-May-23 04:58N 37°28' E 025°19'0 0.0
2018-May-23 04:28N 37°28' E 025°19'0 0.0
2018-May-23 03:58N 37°28' E 025°19'1 1.8
2018-May-23 03:30N 37°28' E 025°18'714.8
2018-May-23 03:00N 37°26' E 025°09'815.5
2018-May-23 02:29N 37°20' E 025°03'715.6
2018-May-23 02:00N 37°15' E 024°56'43214.5
2018-May-21 20:15N 37°47' E 015°53'415.6
2018-May-21 19:58N 37°49' E 015°47'1215.0
2018-May-21 19:10N 37°56' E 015°36'516.0
2018-May-21 18:52N 38°01' E 015°34'616.0
2018-May-21 18:29N 38°07' E 015°34'510.2
2018-May-21 18:00N 38°12' E 015°34'0 0.0
2018-May-21 08:39N 38°12' E 015°33'0 0.8
2018-May-21 08:29N 38°12' E 015°34'5 9.9
2018-May-21 07:58N 38°15' E 015°38'613.6
2018-May-21 07:30N 38°21' E 015°38'918.1
2018-May-21 06:59N 38°29' E 015°30'918.2
2018-May-21 06:30N 38°35' E 015°22'918.5
2018-May-21 06:00N 38°41' E 015°14'918.2
2018-May-21 05:30N 38°48' E 015°05'6518.6
2018-May-21 02:01N 39°33' E 014°06'018.7
2018-May-21 02:00N 39°34' E 014°06'1018.3
2018-May-21 01:27N 39°41' E 013°56'1218.4
2018-May-21 00:49N 39°49' E 013°46'618.8
2018-May-21 00:30N 39°53' E 013°40'918.7
2018-May-21 00:00N 39°60' E 013°32'1518.4
2018-May-20 23:11N 40°10' E 013°18'318.4
2018-May-20 23:01N 40°13' E 013°15'918.6
2018-May-20 22:30N 40°19' E 013°06'919.0
2018-May-20 22:00N 40°26' E 012°57'1019.1
2018-May-20 21:30N 40°33' E 012°48'1118.9
2018-May-20 20:55N 40°41' E 012°38'819.0
2018-May-20 20:28N 40°47' E 012°31'2019.2
2018-May-20 19:26N 41°04' E 012°17'819.1
2018-May-20 19:00N 41°11' E 012°11'1019.2
2018-May-20 18:31N 41°19' E 012°05'41810.4
2018-May-19 02:15N 40°14' E 002°60'518.5
2018-May-19 02:00N 40°13' E 002°54'918.3
2018-May-19 01:30N 40°11' E 002°43'5220.6
2018-May-18 23:00N 39°48' E 001°42'3411.5 040 / 91013.027.0 17.0 -18.0
2018-May-18 20:00N 39°36' E 001°00'5825.0 050 / 131008.027.0 -18.0
2018-May-18 17:42N 39°25' W 000°13'413.0
2018-May-18 17:21N 39°26' W 000°19'1 0.1
2018-May-18 04:44N 39°27' W 000°19'1 2.3
2018-May-18 04:30N 39°27' W 000°19'4 8.7
2018-May-18 04:00N 39°25' W 000°14'47 9.4
2018-May-17 23:00N 38°48' E 000°24'23 7.6 1014.027.0 18.0 -18.0
2018-May-17 20:00N 38°30' E 000°06'33 2.6 120 / 21008.027.0 -19.0
2018-May-17 07:24N 38°06' W 000°22'717.0
2018-May-17 06:59N 37°59' W 000°24'917.6
2018-May-17 06:30N 37°50' W 000°26'917.6
2018-May-17 06:00N 37°42' W 000°28'918.3
2018-May-17 05:30N 37°33' W 000°31'918.2
2018-May-17 05:00N 37°26' W 000°39'917.7
2018-May-17 04:30N 37°20' W 000°47'917.7
2018-May-17 04:00N 37°14' W 000°56'13016.2
2018-May-16 20:00N 36°12' W 003°18'8920.7 110 / 331008.027.0 -18.0
2018-May-16 15:42N 36°06' W 005°07'420.8
2018-May-16 15:31N 36°05' W 005°12'917.4
2018-May-16 15:00N 36°07' W 005°23'5 0.5
2018-May-16 05:44N 36°02' W 005°22'312.0
2018-May-16 05:30N 35°60' W 005°23'612.9
2018-May-16 05:00N 35°57' W 005°30'9716.1
2018-May-15 23:00N 34°54' W 007°00'4615.3 040 / 271006.027.0 19.0 -20.0
2018-May-15 20:00N 34°24' W 007°42'38118.1 360 / 281006.027.0 -18.0
2018-May-14 23:00N 30°00' W 013°06'2019.7 010 / 341010.027.0 17.0 -20.0
2018-May-14 22:00N 29°48' W 013°24'10919.9 360 / 301019.027.0 -19.0
2018-May-14 16:30N 28°33' W 014°55'917.7
2018-May-14 16:00N 28°26' W 015°02'917.9
2018-May-14 15:30N 28°20' W 015°08'918.1
2018-May-14 15:00N 28°13' W 015°15'917.4
2018-May-14 14:30N 28°07' W 015°23'3 5.4
2018-May-14 14:00N 28°08' W 015°25'0 0.2
2018-May-14 13:30N 28°08' W 015°25'0 0.0
2018-May-14 13:00N 28°08' W 015°25'0 0.0
2018-May-14 12:30N 28°08' W 015°25'0 0.0
2018-May-14 12:00N 28°08' W 015°25'0 0.0
2018-May-14 11:30N 28°08' W 015°25'0 0.0
2018-May-14 11:00N 28°08' W 015°25'0 0.0
2018-May-14 10:30N 28°08' W 015°25'0 0.0
2018-May-14 10:00N 28°08' W 015°25'0 0.0
2018-May-14 09:30N 28°08' W 015°25'0 0.0
2018-May-14 09:00N 28°08' W 015°25'0 0.0
2018-May-14 08:27N 28°08' W 015°25'0 0.0
2018-May-14 08:00N 28°08' W 015°25'0 0.0
2018-May-14 07:30N 28°08' W 015°25'0 0.0
2018-May-14 07:00N 28°08' W 015°25'0 0.0
2018-May-14 06:30N 28°08' W 015°25'0 0.0
2018-May-14 06:00N 28°08' W 015°25'0 0.1
2018-May-14 05:30N 28°08' W 015°25'2 4.7
2018-May-14 05:00N 28°07' W 015°23'3 6.6
2018-May-14 04:30N 28°09' W 015°21'3 6.6
2018-May-14 04:00N 28°13' W 015°21'4 7.0
2018-May-14 03:30N 28°16' W 015°22'4 7.0
2018-May-14 03:00N 28°19' W 015°23'4 7.2
2018-May-14 02:30N 28°23' W 015°24'4 7.3
2018-May-14 02:00N 28°27' W 015°25'4 7.7
2018-May-14 01:30N 28°29' W 015°28'4 7.6
2018-May-14 01:00N 28°31' W 015°31'4 7.9
2018-May-14 00:30N 28°34' W 015°35'4 7.9
2018-May-14 00:00N 28°36' W 015°39'10913.1
2018-May-14 00:00N 28°30' W 015°30'1327.6 040 / 261017.027.0 18.0 -20.0
2018-May-13 23:30N 28°38' W 015°43'4 7.8
2018-May-13 23:00N 28°40' W 015°46'4 6.6
2018-May-13 22:22N 28°39' W 015°51'3 7.1
2018-May-13 22:00N 28°37' W 015°53'10744.5
2018-May-13 22:00N 28°36' W 015°42'1327.0 030 / 211019.027.0 -18.0
2018-May-13 21:30N 28°35' W 015°57'4 7.1
2018-May-13 21:00N 28°33' W 016°00'4 7.3
2018-May-13 20:30N 28°31' W 016°04'3 6.9
2018-May-13 20:00N 28°30' W 016°07'3 6.2
2018-May-13 19:30N 28°29' W 016°10'3 6.3
2018-May-13 19:00N 28°29' W 016°14'1 1.2
2018-May-13 18:30N 28°28' W 016°14'0 0.0
2018-May-13 18:00N 28°28' W 016°14'  

Dump ship's entire track history